Tracking 19562 objects as of 25-Mar-2019
HD Live streaming from Space Station
objects crossing your sky now

CAT 3

Track CAT 3 now!
10-day predictions
CAT 3 is classified as:


NORAD ID: 12546
Int'l Code: 1981-057C
Perigee: 208.8 km
Apogee: 20,634.4 km
Inclination: 10.2 °
Period: 360.9 minutes
Semi major axis: 16792 km
RCS: 1.9927 m2 (large)
Launch date: June 19, 1981
Source: European Space Agency (ESA)
Launch site: FRENCH GUIANA (FRGUI)
aabbcc
Your satellite tracking list
Your tracking list is empty




NASA's NSSDC Master Catalog

Two Line Element Set (TLE):
1 12546U 81057C   19082.86804294 +.00016092 +00000-0 +57575-3 0  9990
2 12546 010.2467 075.1579 6081731 093.4455 333.4601 03.98956478301205
Source of the keplerian elements: AFSPC